Waarnemingen

Advertentie
Mijn weer
Düsseldorf, Duitsland (10400): temperatuur & dauwpunt: 12.02.2019 19:00:00 - 18.02.2019 19:00:00 (CET)Düsseldorf, Duitsland (10400): temperatuur 5cm & temperatuur -5cm: 12.02.2019 19:00:00 - 18.02.2019 19:00:00 (CET)Düsseldorf, Duitsland (10400): temperatuur -20cm & temperatuur -100cm: 12.02.2019 19:00:00 - 18.02.2019 19:00:00 (CET)Düsseldorf, Duitsland (10400): windsnelheid & windstoten: 12.02.2019 19:00:00 - 18.02.2019 19:00:00 (CET)Düsseldorf, Duitsland (10400): windrichting: 12.02.2019 19:00:00 - 18.02.2019 19:00:00 (CET)Düsseldorf, Duitsland (10400): luchtdruk: 12.02.2019 19:00:00 - 18.02.2019 19:00:00 (CET)Düsseldorf, Duitsland (10400): zicht: 12.02.2019 19:00:00 - 18.02.2019 19:00:00 (CET)Düsseldorf, Duitsland (10400): Zonneschijnduur: 12.02.2019 19:00:00 - 18.02.2019 19:00:00 (CET)Düsseldorf, Duitsland (10400): neerslag: 12.02.2019 19:00:00 - 18.02.2019 19:00:00 (CET)
Datum & Tijd tt [°C] td [°C] tt 5cm [°C] tt -5cm [°C] tt -20cm [°C] tt -100cm [°C] ff [km/u] ff [kn] fx [km/u] fx [kn] dd ppp [hPa] vv [km] sd [min] rr [mm]
18.02.2019 19:00:00 11,6 1,1 9,2 7,2 7,2 5,5 21 11 31 17 ZZO 1015,5 10 0 0,0
18.02.2019 18:00:00 13,2 0,1 10,8 8,5 7,3 5,5 20 11 35 19 Z 1015,4 50 29 0,0
18.02.2019 17:00:00 14,9 2,2 13,2 10,4 7,1 5,5 15 8 22 12 Z 1015,5 45 60 0,0
18.02.2019 16:00:00 16,0 1,5 16,1 11,4 6,8 5,5 13 7 21 11 Z 1015,6 10 60 0,0
18.02.2019 15:00:00 16,0 1,1 17,3 11,7 6,2 5,5 11 6 16 9 ZZO 1016,0 10 60 0,0
18.02.2019 14:00:00 15,5 1,0 16,8 11,0 5,6 5,5 13 7 22 12 Z 1017,2 10 59 0,0
18.02.2019 13:00:00 13,9 0,2 14,9 9,9 5,0 5,5 15 8 22 12 Z 1018,1 10 60 0,0
18.02.2019 12:00:00 12,6 0,4 14,1 8,2 4,5 5,5 18 10 28 15 ZZO 1018,7 10 60 0,0
18.02.2019 11:00:00 11,1 0,3 11,7 6,1 4,1 5,4 18 10 35 19 ZZO 1019,2 10 60 0,0
18.02.2019 10:00:00 8,9 -0,1 8,9 4,2 4,0 5,4 24 13 35 19 ZZO 1019,3 10 60 0,0
18.02.2019 09:00:00 7,3 -0,4 6,2 2,8 4,0 5,4 24 13 31 17 ZZO 1019,6 10 37 0,0
18.02.2019 08:00:00 5,9 -0,5 4,1 2,4 4,1 5,4 22 12 31 17 ZZO 1019,4 10 0 0,0
18.02.2019 07:00:00 6,5 -0,2 4,7 2,4 4,3 5,4 23 12 33 18 ZZO 1019,6 50 0 0,0
18.02.2019 06:00:00 5,7 -0,1 2,1 2,6 4,5 5,4 20 11 29 16 ZZO 1019,8 45 0 0,0
18.02.2019 05:00:00 6,1 -0,2 3,2 3,0 4,6 5,4 21 11 33 18 ZZO 1019,9 10 0 0,0
18.02.2019 04:00:00 7,1 0,2 4,8 3,2 4,8 5,4 22 12 33 18 ZZO 1020,0 40 0 0,0
18.02.2019 03:00:00 7,1 0,2 4,6 3,4 4,9 5,4 18 10 30 16 ZZO 1020,4 10 0 0,0
18.02.2019 02:00:00 8,2 0,1 6,1 3,6 5,1 5,4 22 12 32 17 ZZO 1020,5 10 0 0,0
18.02.2019 01:00:00 8,7 0,0 6,3 3,6 5,4 5,4 24 13 31 17 ZZO 1020,5 10 0 0,0
18.02.2019 00:00:00 6,7 -0,1 1,3 3,9 5,6 5,4 18 10 27 14 ZZO 1020,4 10 0 0,0
17.02.2019 23:00:00 7,7 0,2 3,7 4,5 5,9 5,4 18 10 26 14 ZZO 1020,7 10 0 0,0
17.02.2019 22:00:00 8,9 0,8 6,2 5,1 6,1 5,4 18 10 25 14 ZZO 1020,6 10 0 0,0
17.02.2019 21:00:00 10,4 1,2 7,7 5,7 6,4 5,4 16 9 22 12 ZZO 1020,3 10 0 0,0
17.02.2019 20:00:00 11,5 1,1 8,8 6,3 6,6 5,4 16 9 27 15 ZZO 1020,0 10 0 0,0
17.02.2019 19:00:00 12,8 0,9 9,9 7,0 6,8 5,4 18 10 28 15 ZZO 1019,6 10 0 0,0
17.02.2019 18:00:00 14,1 0,7 10,6 8,3 6,8 5,4 11 6 25 14 ZZO 1019,2 10 22 0,0
17.02.2019 17:00:00 16,2 0,7 14,8 10,0 6,7 5,4 16 9 26 14 Z 1019,4 10 60 0,0
17.02.2019 16:00:00 16,8 1,0 16,9 10,7 6,3 5,4 18 10 29 15 ZZO 1019,6 10 60 0,0
17.02.2019 15:00:00 16,1 0,8 17,0 10,7 5,8 5,4 18 10 30 16 ZZO 1020,0 10 60 0,0
17.02.2019 14:00:00 15,6 1,8 17,0 10,1 5,2 5,4 18 10 34 18 Z 1020,7 10 60 0,0
17.02.2019 13:00:00 13,8 1,7 14,5 8,8 4,6 5,3 21 11 30 16 ZZO 1021,3 10 60 0,0
17.02.2019 12:00:00 12,2 1,8 13,0 7,4 4,1 5,3 22 12 36 19 ZZO 1022,0 28 60 0,0
17.02.2019 11:00:00 9,7 1,9 9,9 5,6 3,7 5,3 26 14 37 20 ZZO 1022,3 10 60 0,0
17.02.2019 10:00:00 8,5 1,6 8,4 4,1 3,5 5,3 26 14 37 20 ZZO 1022,6 10 60 0,0
17.02.2019 09:00:00 6,9 1,8 5,7 2,6 3,5 5,3 21 12 29 16 ZZO 1023,0 25 9 0,0
17.02.2019 08:00:00 6,6 1,7 4,5 2,0 3,5 5,3 18 10 31 17 ZZO 1023,0 10 0 0,0
17.02.2019 07:00:00 6,4 1,6 4,2 1,6 3,7 5,3 22 12 32 17 ZZO 1023,1 10 0 0,0
17.02.2019 06:00:00 5,7 1,0 1,2 1,5 3,9 5,3 13 7 22 12 ZZO 1023,5 25 0 0,0
17.02.2019 05:00:00 6,5 1,4 -1,3 1,7 4,1 5,3 11 6 16 9 ZZO 1023,8 10 0 0,0
17.02.2019 04:00:00 4,9 1,1 -0,9 2,1 4,2 5,3 8 4 24 13 ZO 1024,3 25 0 0,0
17.02.2019 03:00:00 5,1 0,9 0,7 2,3 4,5 5,3 16 9 28 15 ZZO 1024,7 25 0 0,0
17.02.2019 02:00:00 6,2 1,4 1,0 2,4 4,7 5,3 17 9 24 13 ZZO 1024,9 25 0 0,0
17.02.2019 01:00:00 3,2 0,6 -0,9 2,6 5,0 5,2 14 8 21 11 ZZO 1025,2 25 0 0,0
17.02.2019 00:00:00 3,0 0,6 -1,8 3,1 5,3 5,2 4 2 9 5 NO 1025,5 25 0 0,0
16.02.2019 23:00:00 3,9 1,1 0,8 3,5 5,6 5,2 9 5 11 6 OZO 1025,5 10 0 0,0
16.02.2019 22:00:00 5,0 1,3 1,2 4,1 5,9 5,2 9 5 13 7 OZO 1025,5 10 0 0,0
16.02.2019 21:00:00 6,1 1,4 1,0 4,7 6,3 5,2 5 3 8 4 OZO 1025,6 25 0 0,0
16.02.2019 20:00:00 7,6 2,0 0,0 5,4 6,7 5,2 2 1 9 5 - 1025,6 10 0 0,0
16.02.2019 19:00:00 8,6 2,0 0,5 6,6 7,0 5,2 9 5 13 7 Z 1025,4 10 0 0,0
16.02.2019 18:00:00 11,1 2,3 3,6 8,3 7,1 5,2 8 4 13 7 ZZW 1025,4 10 15 0,0
16.02.2019 17:00:00 14,4 2,3 12,2 10,0 6,9 5,2 11 6 18 10 ZW 1025,4 10 60 0,0
16.02.2019 16:00:00 15,1 2,6 15,2 10,9 6,6 5,2 15 8 24 13 ZZW 1025,6 10 60 0,0
16.02.2019 15:00:00 15,3 1,8 16,2 11,4 6,1 5,2 16 9 24 13 ZW 1025,8 10 60 0,0
16.02.2019 14:00:00 14,8 1,8 16,0 10,9 5,5 5,2 13 7 21 11 Z 1026,0 10 60 0,0
16.02.2019 13:00:00 13,7 1,1 14,4 9,9 4,9 5,2 14 8 21 11 Z 1026,4 30 60 0,0
16.02.2019 12:00:00 12,0 0,3 13,4 8,2 4,3 5,2 13 7 20 11 Z 1027,0 10 60 0,0
16.02.2019 11:00:00 10,7 0,3 11,4 6,0 4,0 5,2 13 7 29 16 Z 1026,7 10 60 0,0
16.02.2019 10:00:00 8,6 -0,2 8,5 4,1 3,8 5,2 24 13 34 18 ZZO 1026,9 10 60 0,0
16.02.2019 09:00:00 7,2 -0,4 6,2 2,8 3,9 5,2 24 13 37 20 ZZO 1026,8 10 33 0,0
16.02.2019 08:00:00 6,2 -0,4 4,3 2,6 4,0 5,2 24 13 34 18 ZZO 1026,4 10 0 0,0
16.02.2019 07:00:00 6,9 -0,3 5,0 2,7 4,2 5,2 24 13 35 19 Z 1026,2 10 0 0,0
16.02.2019 06:00:00 6,3 -0,3 3,1 2,9 4,3 5,2 22 12 34 18 ZZO 1026,3 10 0 0,0
16.02.2019 05:00:00 7,4 -0,2 5,6 3,2 4,5 5,1 26 14 37 20 ZZO 1026,3 10 0 0,0
16.02.2019 04:00:00 7,6 -0,1 5,7 3,5 4,6 5,1 24 13 37 20 ZZO 1026,5 10 0 0,0
16.02.2019 03:00:00 8,5 -0,1 6,4 3,6 4,8 5,1 22 12 34 18 ZZO 1026,7 50 0 0,0
16.02.2019 02:00:00 8,4 -0,3 6,3 3,8 4,9 5,1 22 12 35 19 ZZO 1027,1 10 0 0,0
16.02.2019 01:00:00 9,0 -0,3 6,9 4,1 5,1 5,1 21 11 34 18 ZZO 1027,2 10 0 0,0
16.02.2019 00:00:00 9,5 -0,4 7,4 4,4 5,3 5,1 23 12 36 19 ZZO 1027,5 50 0 0,0
15.02.2019 23:00:00 10,0 -0,5 7,8 4,7 5,5 5,1 22 12 36 20 ZZO 1027,8 60 0 0,0
15.02.2019 22:00:00 10,9 -0,8 8,3 5,1 5,7 5,2 21 11 34 18 ZZO 1027,8 10 0 0,0
15.02.2019 21:00:00 11,7 -0,6 9,3 5,5 5,9 5,2 22 12 35 19 ZZO 1027,9 10 0 0,0
15.02.2019 20:00:00 12,4 -0,7 9,8 6,0 6,1 5,2 18 10 30 16 ZZO 1028,1 10 0 0,0
15.02.2019 19:00:00 12,9 -0,5 9,2 6,7 6,3 5,2 16 9 25 14 ZZO 1028,4 10 0 0,0
15.02.2019 18:00:00 14,2 0,0 10,7 8,1 6,4 5,2 11 6 26 14 ZO 1028,4 10 29 0,0
15.02.2019 17:00:00 16,0 0,2 14,7 9,9 6,2 5,2 15 8 23 13 ZZO 1028,7 10 60 0,0
15.02.2019 16:00:00 17,1 0,9 17,3 10,7 5,7 5,2 16 9 24 13 ZZO 1029,3 10 60 0,0
15.02.2019 15:00:00 17,2 0,7 18,3 10,7 5,1 5,2 16 9 28 15 ZZO 1029,9 10 60 0,0
15.02.2019 14:00:00 16,2 0,4 17,3 10,0 4,5 5,2 18 10 29 16 ZZO 1030,8 10 60 0,0
15.02.2019 13:00:00 15,1 0,3 16,0 8,8 3,8 5,2 22 12 34 18 ZZO 1031,7 10 60 0,0
15.02.2019 12:00:00 13,6 -0,3 14,4 7,1 3,2 5,2 18 10 37 20 ZZO 1032,2 10 60 0,0
15.02.2019 11:00:00 11,6 -0,6 11,9 4,9 2,7 5,2 22 12 35 19 ZZO 1032,5 10 60 0,0
15.02.2019 10:00:00 9,0 -1,5 8,7 2,8 2,5 5,2 22 12 34 18 ZZO 1032,8 10 60 0,0
15.02.2019 09:00:00 7,2 -2,0 5,6 1,1 2,6 5,2 16 9 24 13 ZZO 1033,2 10 30 0,0
15.02.2019 08:00:00 5,1 -2,9 1,3 0,9 2,7 5,2 13 7 22 12 ZZO 1033,0 50 0 0,0
15.02.2019 07:00:00 5,9 -2,9 3,3 1,0 2,8 5,2 15 8 24 13 ZZO 1033,0 10 0 0,0
15.02.2019 06:00:00 5,5 -3,0 2,8 1,0 2,9 5,2 15 8 22 12 ZZO 1032,9 60 0 0,0
15.02.2019 05:00:00 5,6 -3,3 2,8 1,1 3,1 5,2 15 8 23 13 ZZO 1033,1 10 0 0,0
15.02.2019 04:00:00 6,0 -3,4 3,2 1,2 3,2 5,2 16 8 22 12 ZZO 1033,3 60 0 0,0
15.02.2019 03:00:00 6,1 -4,3 3,2 1,5 3,4 5,2 16 9 22 12 ZZO 1033,8 60 0 0,0
15.02.2019 02:00:00 6,4 -5,0 3,8 1,7 3,6 5,2 16 9 24 13 ZZO 1034,1 10 0 0,0
15.02.2019 01:00:00 7,1 -4,7 4,5 1,9 3,8 5,2 18 10 26 14 ZZO 1034,2 10 0 0,0
15.02.2019 00:00:00 6,7 -3,8 3,6 2,2 4,0 5,2 15 8 21 11 ZZO 1034,2 10 0 0,0
14.02.2019 23:00:00 7,0 -3,6 3,9 2,5 4,3 5,2 16 9 23 12 ZZO 1034,1 10 0 0,0
14.02.2019 22:00:00 7,8 -3,7 4,9 2,8 4,6 5,2 16 9 24 13 ZZO 1034,2 10 0 0,0
14.02.2019 21:00:00 6,3 -4,4 -0,3 3,2 4,9 5,2 9 5 15 8 ZZO 1034,3 10 0 0,0
14.02.2019 20:00:00 8,6 -4,2 0,6 4,1 5,2 5,2 8 4 13 7 OZO 1034,5 55 0 0,0
14.02.2019 19:00:00 9,0 -5,0 2,5 5,2 5,4 5,2 9 5 13 7 OZO 1034,5 10 0 0,0
14.02.2019 18:00:00 11,1 -5,3 4,7 6,9 5,5 5,2 8 4 9 5 O 1034,2 10 24 0,0
14.02.2019 17:00:00 14,5 -1,5 12,9 8,7 5,2 5,2 4 2 8 4 - 1034,3 10 60 0,0
14.02.2019 16:00:00 15,0 -4,2 15,1 9,0 4,8 5,2 4 2 13 7 - 1034,7 10 59 0,0
14.02.2019 15:00:00 13,3 -2,8 13,9 8,5 4,3 5,2 8 4 16 9 Z 1035,3 10 59 0,0
14.02.2019 14:00:00 11,6 -1,8 11,9 7,7 3,7 5,2 8 4 13 7 Z 1035,5 10 53 0,0
14.02.2019 13:00:00 10,3 -1,3 11,1 7,4 3,1 5,2 11 6 22 12 Z 1036,5 50 60 0,0
14.02.2019 12:00:00 8,8 -1,4 10,5 5,1 2,6 5,2 9 5 21 11 ZZO 1036,8 10 60 0,0
14.02.2019 11:00:00 6,6 -0,7 7,3 2,6 2,4 5,2 11 6 31 17 ZZO 1036,8 10 53 0,0
14.02.2019 10:00:00 5,0 -1,4 4,7 0,9 2,5 5,2 16 9 25 14 Z 1036,8 10 60 0,0
14.02.2019 09:00:00 2,9 -1,6 1,4 0,8 2,5 5,2 9 5 18 10 Z 1037,1 10 28 0,0
14.02.2019 08:00:00 1,8 -1,8 -1,6 0,8 2,6 5,2 12 7 21 11 ZZO 1036,9 35 0 0,0
14.02.2019 07:00:00 2,5 -1,3 -0,1 0,8 2,7 5,2 15 8 22 12 ZZO 1036,3 10 0 0,0
14.02.2019 06:00:00 2,0 -1,4 -2,2 0,9 2,9 5,2 9 5 16 9 Z 1036,2 10 0 0,0
14.02.2019 05:00:00 2,3 -1,2 -0,9 0,9 3,1 5,2 8 4 21 11 - 1036,0 10 0 0,0
14.02.2019 04:00:00 1,9 -1,4 -2,6 1,1 3,2 5,2 13 7 24 13 Z 1035,9 10 0 0,0
14.02.2019 03:00:00 3,3 -0,6 1,7 1,5 3,4 5,2 18 10 27 15 ZZO 1036,1 35 0 0,0
14.02.2019 02:00:00 2,8 -0,5 0,2 1,7 3,6 5,2 17 9 22 12 ZZO 1036,1 30 0 0,0
14.02.2019 01:00:00 3,2 0,2 -0,8 2,0 3,8 5,2 6 4 21 11 ZZO 1036,1 28 0 0,0
14.02.2019 00:00:00 3,3 0,5 1,2 2,3 4,0 5,2 13 7 24 13 ZZO 1035,8 10 0 0,0
13.02.2019 23:00:00 3,7 0,6 1,5 2,7 4,2 5,2 11 6 21 11 ZZO 1036,0 30 0 0,0
13.02.2019 22:00:00 4,6 1,1 2,8 3,1 4,4 5,3 13 7 22 12 ZZO 1036,2 10 0 0,0
13.02.2019 21:00:00 5,0 1,4 3,2 3,4 4,6 5,3 13 7 16 9 ZZO 1036,2 10 0 0,0
13.02.2019 20:00:00 4,7 1,4 0,5 3,8 4,9 5,3 8 4 11 6 ZZO 1036,4 10 0 0,0
13.02.2019 19:00:00 6,2 2,2 1,9 4,5 5,1 5,3 8 4 15 8 ZW 1036,5 10 0 0,0
13.02.2019 18:00:00 6,1 1,8 2,4 5,5 5,1 5,3 10 6 21 11 Z 1036,3 27 0 0,0
13.02.2019 17:00:00 7,6 2,0 6,9 6,5 5,1 5,3 11 6 21 11 ZZW 1036,0 30 0 0,0
13.02.2019 16:00:00 8,0 2,0 7,5 7,4 4,8 5,3 15 8 21 11 Z 1035,8 10 16 0,0
13.02.2019 15:00:00 8,3 1,9 8,7 8,0 4,4 5,3 15 8 22 12 Z 1036,1 10 39 0,0
13.02.2019 14:00:00 7,9 1,7 9,3 7,3 4,0 5,3 11 6 18 10 ZZW 1036,7 10 52 0,0
13.02.2019 13:00:00 7,0 1,6 7,8 6,0 3,6 5,3 15 8 21 11 Z 1037,0 10 13 0,0
13.02.2019 12:00:00 6,1 1,1 6,7 5,5 3,2 5,3 15 8 21 11 Z 1036,9 10 41 0,0
13.02.2019 11:00:00 5,2 0,3 6,4 4,3 2,8 5,3 15 8 22 12 ZZW 1037,1 10 60 0,0
13.02.2019 10:00:00 3,7 0,2 4,1 2,4 2,7 5,3 9 5 21 11 ZZO 1037,2 10 30 0,0
13.02.2019 09:00:00 2,4 -0,1 2,0 1,7 2,7 5,3 13 7 18 10 ZZO 1037,3 10 0 0,0
13.02.2019 08:00:00 1,8 -0,2 1,4 1,4 2,7 5,3 11 6 18 10 ZZO 1036,9 10 0 0,0
13.02.2019 07:00:00 1,7 -0,1 1,1 1,0 2,8 5,3 10 6 15 8 ZZO 1036,3 17 0 0,0
13.02.2019 06:00:00 0,8 -0,6 -0,9 1,1 3,0 5,3 11 6 13 7 ZZO 1036,1 17 0 0,0
13.02.2019 05:00:00 2,1 -0,4 0,4 1,6 3,1 5,3 9 5 22 12 Z 1036,2 17 0 0,0
13.02.2019 04:00:00 2,9 0,0 1,4 2,2 3,1 5,3 13 7 21 11 Z 1036,5 10 0 0,0
13.02.2019 03:00:00 3,4 0,7 2,8 2,1 3,2 5,3 15 8 24 13 Z 1036,6 10 0 0,0
13.02.2019 02:00:00 2,7 0,5 1,9 1,7 3,3 5,3 13 7 21 11 ZZW 1036,8 10 0 0,0
13.02.2019 01:00:00 2,7 0,5 1,3 1,6 3,4 5,4 11 6 22 12 Z 1036,6 10 0 0,0
13.02.2019 00:00:00 2,6 0,4 1,0 1,7 3,6 5,4 15 8 21 11 ZZW 1036,3 10 0 0,0
12.02.2019 23:00:00 2,6 0,6 0,4 1,8 3,9 5,4 16 9 21 11 ZW 1035,9 10 0 0,0
12.02.2019 22:00:00 2,1 0,3 -1,5 2,2 4,1 5,4 13 7 21 11 ZZW 1035,7 10 0 0,0
12.02.2019 21:00:00 2,8 0,8 -0,3 2,9 4,4 5,4 16 9 22 12 ZW 1035,6 10 0 0,0
12.02.2019 20:00:00 3,7 1,3 0,8 3,8 4,5 5,4 13 7 20 11 ZZW 1035,5 10 0 0,0
12.02.2019 19:00:00 5,2 2,5 4,1 4,2 4,6 5,4 15 8 21 11 ZZW 1035,3 10 0 0,0

tt = temperatuur
td = dauwpunt
tt 5cm = temperatuur 5cm
tt -5cm = temperatuur -5cm
tt -20cm = temperatuur -20cm
tt -100cm = temperatuur -100cm
ff = windsnelheid
fx = windstoten
dd = windrichting
ppp = luchtdruk
vv = zicht
sd = Zonneschijnduur
rr = neerslag

Weerstations in de omgeving